TimeMDT,TemperatureF,Dew PointF,Humidity,Sea Level PressureIn,VisibilityMPH,Wind Direction,Wind SpeedMPH,Gust SpeedMPH,PrecipitationIn,Events,Conditions,WindDirDegrees,DateUTC
12:53 AM,42.1,35.1,76,29.89,10.0,SSW,6.9,-,N/A,,Clear,210,2013-05-15 06:53:00
1:53 AM,42.1,34.0,73,29.89,10.0,SSW,5.8,-,N/A,,Partly Cloudy,200,2013-05-15 07:53:00
2:53 AM,39.9,34.0,79,29.90,10.0,SSW,4.6,-,N/A,,Partly Cloudy,210,2013-05-15 08:53:00
3:53 AM,39.9,34.0,79,29.92,10.0,South,6.9,-,N/A,,Clear,190,2013-05-15 09:53:00
4:53 AM,37.0,32.0,82,29.96,10.0,SSW,3.5,-,N/A,,Clear,210,2013-05-15 10:53:00
5:53 AM,39.9,34.0,79,29.96,10.0,South,4.6,-,N/A,,Clear,180,2013-05-15 11:53:00
6:53 AM,44.1,34.0,68,29.95,10.0,SSW,8.1,-,N/A,,Clear,210,2013-05-15 12:53:00
7:53 AM,50.0,35.1,57,29.91,10.0,Calm,Calm,-,N/A,,Clear,0,2013-05-15 13:53:00
8:53 AM,55.9,36.0,47,29.87,10.0,Calm,Calm,-,N/A,,Clear,0,2013-05-15 14:53:00
9:53 AM,60.1,36.0,41,29.85,10.0,Calm,Calm,-,N/A,,Partly Cloudy,0,2013-05-15 15:53:00
10:53 AM,66.0,39.0,37,29.83,10.0,North,9.2,-,N/A,,Partly Cloudy,360,2013-05-15 16:53:00
11:53 AM,64.9,33.1,31,29.81,10.0,North,5.8,-,N/A,,Mostly Cloudy,360,2013-05-15 17:53:00
12:53 PM,61.0,36.0,39,29.86,10.0,South,12.7,-,N/A,,Overcast,180,2013-05-15 18:53:00
1:19 PM,62.6,39.2,42,30.13,10.0,ESE,10.4,-,N/A,Thunderstorm,Thunderstorm,120,2013-05-15 19:19:00
1:53 PM,61.0,37.0,41,29.86,10.0,SE,12.7,-,N/A,Thunderstorm,Thunderstorm,130,2013-05-15 19:53:00
2:53 PM,63.0,34.0,34,29.84,10.0,Calm,Calm,-,0.00,,Scattered Clouds,0,2013-05-15 20:53:00
3:53 PM,66.0,34.0,30,29.79,7.0,South,5.8,-,N/A,,Partly Cloudy,170,2013-05-15 21:53:00
4:53 PM,63.0,34.0,34,29.81,10.0,Variable,6.9,19.6,N/A,,Mostly Cloudy,0,2013-05-15 22:53:00
5:53 PM,59.0,39.0,48,29.81,10.0,Calm,Calm,-,0.00,,Scattered Clouds,0,2013-05-15 23:53:00
6:53 PM,55.0,39.0,55,29.86,10.0,SSW,11.5,29.9,0.01,Rain,Light Rain,210,2013-05-16 00:53:00
7:53 PM,50.0,41.0,71,29.84,10.0,SE,16.1,23.0,0.07,,Mostly Cloudy,140,2013-05-16 01:53:00
8:53 PM,48.0,41.0,77,29.85,10.0,SSW,8.1,-,N/A,,Scattered Clouds,200,2013-05-16 02:53:00
9:53 PM,46.9,39.0,74,29.85,10.0,SW,6.9,-,N/A,,Clear,220,2013-05-16 03:53:00
10:53 PM,44.1,37.9,79,29.84,10.0,SSW,4.6,-,N/A,,Clear,200,2013-05-16 04:53:00
11:53 PM,42.1,37.9,85,29.86,10.0,South,5.8,-,N/A,,Partly Cloudy,170,2013-05-16 05:53:00